FW3791 Weather Reports


Display with metric or nautical units.
time (UTC)temp
F
wind
direction
speed
MPH
gust
MPH
rain 1hr
in
rain 24hr
in
rain mn
in
humidity
%
barometer
mb
20260506191502 83 36 0.0 3.0 0.00 0.00 0.00 85 1007.1
20260506191002 83 75 0.0 2.0 0.00 0.00 0.00 85 1007.1
20260506190449 83 102 0.0 3.0 0.00 0.00 0.00 85 1007.2
20260506185941 83 114 1.0 6.0 0.00 0.00 0.00 86 1007.2
20260506185435 83 39 0.0 6.0 0.00 0.00 0.00 86 1007.1
20260506184918 83 111 1.0 5.0 0.00 0.00 0.00 84 1007.2
20260506184417 82 148 2.0 5.0 0.00 0.00 0.00 83 1007.2
20260506183916 82 122 1.0 5.0 0.00 0.00 0.00 84 1007.2
20260506183417 82 102 0.0 3.0 0.00 0.00 0.00 86 1007.3
20260506182915 81 89 1.0 6.0 0.00 0.00 0.00 87 1007.4
20260506182415 81 80 1.0 6.0 0.00 0.00 0.00 88 1007.4
20260506181916 80 35 1.0 6.0 0.00 0.00 0.00 88 1007.4
20260506181642 79 108 1.0 6.0 0.00 0.00 0.00 88 1007.2
20260506181136 79 351 1.0 4.0 0.00 0.00 0.00 89 1007.3
20260506180406 78 31 2.0 6.0 0.00 0.00 0.00 90 1007.4
20260506180129 78 355 1.0 6.0 0.00 0.00 0.00 90 1007.3
20260506175344 77 39 2.0 8.0 0.00 0.00 0.00 91 1007.2
20260506174841 77 20 2.0 9.0 0.00 0.00 0.00 92 1007.3
20260506174340 77 6 1.0 9.0 0.00 0.00 0.00 92 1007.4
20260506173842 77 31 1.0 5.0 0.00 0.00 0.00 92 1007.5
20260506173341 77 90 1.0 5.0 0.00 0.00 0.00 92 1007.6
20260506172842 77 39 1.0 6.0 0.00 0.00 0.00 92 1007.7
20260506172337 77 33 2.0 7.0 0.00 0.00 0.00 92 1007.7
20260506171837 77 24 1.0 7.0 0.00 0.00 0.00 92 1007.7
20260506171337 77 15 1.0 7.0 0.00 0.00 0.00 92 1007.6
20260506170820 77 41 1.0 6.0 0.00 0.00 0.00 92 1007.6
20260506170556 77 7 1.0 5.0 0.00 0.00 0.00 92 1007.6
20260506165819 77 23 1.0 4.0 0.00 0.00 0.00 92 1007.5
20260506165319 77 41 0.0 5.0 0.00 0.00 0.00 92 1007.6
20260506164819 77 23 1.0 5.0 0.00 0.00 0.00 93 1007.6
20260506164549 77 30 1.0 4.0 0.00 0.00 0.00 93 1007.6
20260506164049 76 32 1.0 4.0 0.00 0.00 0.00 93 1007.7
20260506163317 76 28 1.0 4.0 0.00 0.00 0.00 93 1007.7
20260506162815 76 34 2.0 6.0 0.00 0.00 0.00 93 1007.7
20260506162554 76 17 1.0 6.0 0.00 0.00 0.00 93 1007.7
20260506162042 76 33 1.0 5.0 0.00 0.00 0.00 93 1007.7
20260506161306 76 41 1.0 5.0 0.00 0.00 0.00 93 1007.6
20260506160806 76 40 2.0 5.0 0.00 0.00 0.00 93 1007.5
20260506160308 75 32 1.0 5.0 0.00 0.00 0.00 93 1007.4
20260506155808 75 54 0.0 3.0 0.00 0.00 0.00 93 1007.4
20260506155305 75 29 1.0 5.0 0.00 0.00 0.00 93 1007.5
20260506154759 75 32 1.0 5.0 0.00 0.00 0.00 92 1007.4
20260506154247 75 30 1.0 4.0 0.00 0.00 0.00 92 1007.3
20260506154016 75 35 1.0 2.0 0.00 0.00 0.00 92 1007.2
20260506153211 74 39 0.0 2.0 0.00 0.00 0.00 92 1007.1
20260506152708 74 42 0.0 2.0 0.00 0.00 0.00 92 1006.9
20260506152206 74 43 0.0 2.0 0.00 0.00 0.00 92 1006.9
20260506151935 74 39 0.0 2.0 0.00 0.00 0.00 92 1006.9
20260506151149 74 37 1.0 4.0 0.00 0.00 0.00 92 1006.8
20260506150609 74 32 1.0 4.0 0.00 0.00 0.00 92 1006.6
20260506145557 74 21 0.0 2.0 0.00 0.00 0.00 92 1006.5
20260506145316 74 18 0.0 2.0 0.00 0.00 0.00 92 1006.4
20260506144542 74 18 1.0 2.0 0.00 0.00 0.00 92 1006.6
20260506144308 74 6 1.0 4.0 0.00 0.00 0.00 92 1006.6
20260506143533 74 4 2.0 4.0 0.00 0.00 0.00 92 1006.6
20260506143031 74 16 1.0 3.0 0.00 0.00 0.00 92 1006.6
20260506142520 74 29 1.0 3.0 0.00 0.00 0.00 92 1006.6
20260506142022 74 47 0.0 3.0 0.00 0.00 0.00 92 1006.5
20260506141521 74 49 0.0 3.0 0.00 0.00 0.00 92 1006.2
20260506141013 74 66 0.0 1.0 0.00 0.00 0.00 92 1006.0
20260506140505 74 67 0.0 2.0 0.00 0.00 0.00 92 1006.1
20260506140005 74 70 0.0 2.0 0.00 0.00 0.00 92 1005.9
20260506135503 74 85 0.0 2.0 0.00 0.00 0.00 92 1005.8
20260506135004 74 90 0.0 3.0 0.00 0.00 0.00 92 1005.6
20260506134459 74 104 1.0 3.0 0.00 0.00 0.00 92 1005.4
20260506134156 74 101 0.0 3.0 0.00 0.00 0.00 92 1005.4
20260506133408 74 75 0.0 2.0 0.00 0.00 0.00 92 1005.3
20260506132902 74 59 0.0 3.0 0.00 0.00 0.00 92 1005.3
20260506132555 74 58 0.0 3.0 0.00 0.00 0.00 92 1005.2
20260506131823 74 93 0.0 3.0 0.00 0.00 0.00 92 1005.3
20260506131324 74 39 1.0 4.0 0.00 0.00 0.00 92 1005.2
20260506130810 74 114 1.0 4.0 0.00 0.00 0.00 91 1005.1
20260506130312 74 119 1.0 3.0 0.00 0.00 0.00 91 1005.0
20260506125810 74 116 1.0 4.0 0.00 0.00 0.00 91 1004.9
20260506125309 74 108 1.0 4.0 0.00 0.00 0.00 91 1004.9
20260506124810 74 116 1.0 3.0 0.00 0.00 0.00 91 1004.9
20260506124300 74 113 1.0 4.0 0.00 0.00 0.00 91 1004.9
20260506124036 74 119 2.0 4.0 0.00 0.00 0.00 91 1004.9
20260506123301 74 110 1.0 3.0 0.00 0.00 0.00 91 1004.9
20260506122759 74 101 1.0 3.0 0.00 0.00 0.00 91 1004.9
20260506122300 74 98 1.0 3.0 0.00 0.00 0.00 91 1005.0
20260506121753 74 122 1.0 3.0 0.00 0.00 0.00 91 1005.1
20260506121253 74 122 1.0 4.0 0.00 0.00 0.00 91 1005.1
20260506120749 74 124 1.0 4.0 0.00 0.00 0.00 91 1005.1
20260506120247 74 123 1.0 3.0 0.00 0.00 0.00 91 1005.0
20260506115748 74 123 1.0 3.0 0.00 0.00 0.00 91 1005.0
20260506115240 74 123 1.0 3.0 0.00 0.00 0.00 91 1005.0
20260506114738 74 123 1.0 4.0 0.00 0.00 0.00 91 1005.0
20260506114240 74 137 1.0 4.0 0.00 0.00 0.00 91 1004.9
20260506113736 74 135 1.0 3.0 0.00 0.00 0.00 91 1004.9
20260506113236 74 143 1.0 5.0 0.00 0.00 0.00 91 1004.9
20260506113002 74 137 2.0 5.0 0.00 0.00 0.00 91 1004.9
20260506112219 74 143 2.0 5.0 0.00 0.00 0.00 91 1004.9
20260506111719 74 149 2.0 4.0 0.00 0.00 0.00 91 1004.9
20260506111217 74 131 1.0 4.0 0.00 0.00 0.00 91 1004.9
20260506110712 74 144 1.0 4.0 0.00 0.00 0.00 91 1004.8
20260506110209 74 112 1.0 7.0 0.00 0.00 0.00 91 1004.9
20260506105708 74 132 1.0 7.0 0.00 0.00 0.00 91 1004.9
20260506105208 74 137 1.0 4.0 0.00 0.00 0.00 91 1004.9
20260506104708 74 80 1.0 4.0 0.00 0.00 0.00 91 1004.8
20260506104207 74 133 1.0 3.0 0.00 0.00 0.00 91 1004.6
20260506103700 74 147 1.0 4.0 0.00 0.00 0.00 91 1004.7
20260506103433 74 133 1.0 5.0 0.00 0.00 0.00 91 1004.6
20260506102659 74 135 1.0 5.0 0.00 0.00 0.00 91 1004.7
20260506102159 74 133 1.0 3.0 0.00 0.00 0.00 91 1004.8
20260506101658 74 80 2.0 6.0 0.00 0.00 0.00 91 1004.9
20260506101149 74 158 2.0 6.0 0.00 0.00 0.00 91 1004.9
20260506100647 74 174 2.0 5.0 0.00 0.00 0.00 91 1004.8
20260506100148 74 163 2.0 7.0 0.00 0.00 0.00 91 1004.7
20260506095920 74 170 2.0 7.0 0.00 0.00 0.00 91 1004.7
20260506095145 74 181 2.0 6.0 0.00 0.00 0.00 90 1004.7
20260506094639 74 115 2.0 6.0 0.00 0.00 0.00 90 1004.6
20260506094138 74 156 2.0 4.0 0.00 0.00 0.00 90 1004.7
20260506093638 74 158 2.0 6.0 0.00 0.00 0.00 90 1004.6
20260506093136 74 154 2.0 7.0 0.00 0.00 0.00 90 1004.6
20260506092636 74 151 2.0 7.0 0.00 0.00 0.00 90 1004.6
20260506092137 74 158 2.0 7.0 0.00 0.00 0.00 90 1004.4
20260506091626 74 124 2.0 6.0 0.00 0.00 0.00 90 1004.3
20260506091359 74 158 2.0 6.0 0.00 0.00 0.00 90 1004.5
20260506090625 74 80 2.0 5.0 0.00 0.00 0.00 90 1004.5
20260506090122 74 163 3.0 11.0 0.00 0.00 0.00 90 1004.4
20260506085622 74 169 2.0 11.0 0.00 0.00 0.00 90 1004.3
20260506085123 74 149 2.0 9.0 0.00 0.00 0.00 90 1004.5
20260506084619 74 80 3.0 9.0 0.00 0.00 0.00 90 1004.4
20260506084117 74 143 2.0 8.0 0.00 0.00 0.00 90 1004.4
20260506083603 74 80 2.0 6.0 0.00 0.00 0.00 90 1004.6
20260506083102 74 140 2.0 8.0 0.00 0.00 0.00 90 1004.6
20260506082604 75 134 2.0 8.0 0.00 0.00 0.00 90 1004.6
20260506082102 75 166 2.0 8.0 0.00 0.00 0.00 90 1004.6
20260506081603 75 132 3.0 9.0 0.00 0.00 0.00 90 1004.7
20260506081103 75 134 3.0 9.0 0.00 0.00 0.00 90 1004.5
20260506080602 75 142 2.0 9.0 0.00 0.00 0.00 90 1004.5
20260506073051 75 118 2.0 6.0 0.00 0.00 0.00 90 1004.9
20260506072554 75 80 2.0 5.0 0.00 0.00 0.00 90 1005.0
20260506072550 75 141 2.0 6.0 0.00 0.00 0.00 90 1005.0
20260506071542 75 145 2.0 5.0 0.00 0.00 0.00 90 1005.2
20260506071041 75 120 2.0 6.0 0.00 0.00 0.00 89 1005.1
20260506070539 75 80 2.0 6.0 0.00 0.00 0.00 89 1005.2
20260506061526 76 143 2.0 5.0 0.00 0.00 0.00 89 1005.5
20260506061027 76 147 2.0 5.0 0.00 0.00 0.00 88 1005.3
20260506060801 76 80 2.0 4.0 0.00 0.00 0.00 88 1005.4
20260506050956 76 153 2.0 7.0 0.00 0.00 0.00 88 1005.4
20260506050456 76 139 1.0 5.0 0.00 0.00 0.00 88 1005.5
20260506044953 77 124 2.0 4.0 0.00 0.00 0.00 87 1005.2
20260506044454 77 122 2.0 7.0 0.00 0.00 0.00 87 1005.1
20260506043954 77 80 2.0 7.0 0.00 0.00 0.00 87 1005.1
20260506043454 77 80 2.0 5.0 0.00 0.00 0.00 87 1005.1
20260506042951 77 118 2.0 3.0 0.00 0.00 0.00 87 1005.1
20260506042452 77 128 2.0 4.0 0.00 0.00 0.00 87 1005.1
20260506041952 77 140 2.0 4.0 0.00 0.00 0.00 86 1005.2
20260506041451 77 119 2.0 4.0 0.00 0.00 0.00 86 1005.2
20260506040952 78 123 2.0 3.0 0.00 0.00 0.00 86 1005.2
20260506040452 78 106 1.0 4.0 0.00 0.00 0.00 86 1005.2
20260506035941 78 89 1.0 4.0 0.00 0.00 0.00 86 1004.9
20260506035441 78 108 2.0 3.0 0.00 0.00 0.00 85 1004.9
20260506034942 78 116 2.0 3.0 0.00 0.00 0.00 85 1004.9
20260506034439 78 117 2.0 6.0 0.00 0.00 0.00 85 1004.7
20260506033940 78 131 2.0 6.0 0.00 0.00 0.00 85 1004.7
20260506033430 78 133 2.0 4.0 0.00 0.00 0.00 85 1004.9
20260506032930 79 133 2.0 4.0 0.00 0.00 0.00 85 1004.8
20260506032430 79 116 2.0 4.0 0.00 0.00 0.00 84 1004.7
20260506031927 79 137 2.0 5.0 0.00 0.00 0.00 84 1004.5
20260506031428 79 133 2.0 5.0 0.00 0.00 0.00 84 1004.5
20260506030919 79 80 2.0 7.0 0.00 0.00 0.00 84 1004.4
20260506030420 79 110 2.0 5.0 0.00 0.00 0.00 84 1004.4
20260506025919 79 114 2.0 5.0 0.00 0.00 0.00 83 1004.2
20260506025418 80 131 2.0 8.0 0.00 0.00 0.00 83 1004.3
20260506024919 80 80 2.0 8.0 0.00 0.00 0.00 83 1004.3
20260506024420 80 118 1.0 3.0 0.00 0.00 0.00 82 1004.1
20260506023912 80 107 2.0 5.0 0.00 0.00 0.00 82 1003.9
20260506023412 80 130 2.0 5.0 0.00 0.00 0.00 82 1004.0
20260506022906 80 95 1.0 3.0 0.00 0.00 0.00 82 1003.9
20260506022420 80 112 2.0 6.0 0.00 0.00 0.00 81 1003.6
20260506022415 80 112 1.0 4.0 0.00 0.00 0.00 81 1003.9
20260506021405 81 122 2.0 6.0 0.00 0.00 0.00 81 1003.7
20260506020904 81 120 2.0 6.0 0.00 0.00 0.00 80 1003.6
20260506020641 81 122 1.0 4.0 0.00 0.00 0.00 80 1003.6
20260506015905 81 97 1.0 4.0 0.00 0.00 0.00 80 1003.6
20260506015406 81 118 1.0 4.0 0.00 0.00 0.00 80 1003.5
20260506014902 81 108 1.0 4.0 0.00 0.00 0.00 81 1003.3
20260506014359 82 111 1.0 4.0 0.00 0.00 0.00 83 1003.3
20260506013900 82 120 1.0 4.0 0.00 0.00 0.00 84 1003.3
20260506013358 82 92 1.0 3.0 0.00 0.00 0.00 85 1003.3
20260506012907 83 113 1.0 4.0 0.00 0.00 0.00 87 1003.2
20260506012901 82 97 1.0 3.0 0.00 0.00 0.00 86 1003.2
20260506011858 83 135 0.0 4.0 0.00 0.00 0.00 87 1003.4
20260506011348 83 101 0.0 3.0 0.00 0.00 0.00 87 1003.5
20260506011110 83 63 0.0 2.0 0.00 0.00 0.00 87 1003.4
20260506010605 83 75 1.0 3.0 0.00 0.00 0.00 86 1003.4
20260506005834 83 75 0.0 3.0 0.00 0.00 0.00 86 1003.3
20260506005330 84 43 0.0 1.0 0.00 0.00 0.00 87 1003.3
20260506005326 84 32 0.0 2.0 0.00 0.00 0.00 86 1003.2
20260506004323 84 106 0.0 2.0 0.00 0.00 0.00 86 1003.2
20260506003818 84 106 0.0 2.0 0.00 0.00 0.00 86 1003.1
20260506003313 84 119 0.0 2.0 0.00 0.00 0.00 86 1003.2
20260506003035 84 119 1.0 2.0 0.00 0.00 0.00 86 1003.2
20260506002306 84 119 1.0 3.0 0.00 0.00 0.00 86 1003.2
20260506001759 85 119 1.0 4.0 0.00 0.00 0.00 86 1003.1
20260506001456 85 139 1.0 4.0 0.00 0.00 0.00 86 1003.1
20260506000948 85 103 1.0 3.0 0.00 0.00 0.00 85 1003.0
20260506000213 85 135 1.0 2.0 0.00 0.00 0.00 85 1003.1
20260505235714 85 139 1.0 4.0 0.00 0.00 0.00 85 1003.1
20260505235445 85 136 1.0 4.0 0.00 0.00 0.00 84 1003.2
20260505234948 85 163 1.0 4.0 0.00 0.00 0.00 84 1003.1
20260505234153 85 116 2.0 7.0 0.00 0.00 0.00 80 1003.0
20260505233652 85 165 2.0 7.0 0.00 0.00 0.00 81 1003.1
20260505233427 85 143 1.0 4.0 0.00 0.00 0.00 79 1003.0
20260505232654 85 138 1.0 4.0 0.00 0.00 0.00 75 1003.0
20260505232138 85 133 1.0 4.0 0.00 0.00 0.00 73 1003.0
20260505231638 85 133 2.0 4.0 0.00 0.00 0.00 71 1002.9
20260505231136 85 156 2.0 4.0 0.00 0.00 0.00 73 1002.9
20260505230635 85 133 2.0 5.0 0.00 0.00 0.00 73 1002.9
20260505230128 85 158 2.0 6.0 0.00 0.00 0.00 72 1002.9
20260505225902 85 193 3.0 11.0 0.00 0.00 0.00 71 1002.8
20260505225126 85 171 3.0 11.0 0.00 0.00 0.00 70 1002.9
20260505224626 85 80 2.0 6.0 0.00 0.00 0.00 73 1002.9
20260505224402 86 155 2.0 6.0 0.00 0.00 0.00 79 1003.0
20260505223625 86 121 2.0 7.0 0.00 0.00 0.00 79 1003.0
20260505223116 86 120 2.0 8.0 0.00 0.00 0.00 76 1003.1
20260505222616 86 80 2.0 8.0 0.00 0.00 0.00 75 1003.1
20260505222116 86 89 2.0 8.0 0.00 0.00 0.00 74 1003.0
20260505221615 85 139 3.0 12.0 0.00 0.00 0.00 70 1003.1
20260505221115 85 145 3.0 12.0 0.00 0.00 0.00 70 1003.1
20260505220616 85 120 3.0 10.0 0.00 0.00 0.00 70 1003.1
20260505220105 85 155 3.0 10.0 0.00 0.00 0.00 72 1003.2
20260505215605 86 120 2.0 8.0 0.00 0.00 0.00 78 1003.2
20260505215105 85 80 2.0 6.0 0.00 0.00 0.00 78 1003.1
20260505214604 85 118 2.0 7.0 0.00 0.00 0.00 76 1003.3
20260505214105 85 145 2.0 8.0 0.00 0.00 0.00 72 1003.4
20260505213840 85 173 2.0 8.0 0.00 0.00 0.00 71 1003.5
20260505213106 85 169 3.0 13.0 0.00 0.00 0.00 71 1003.6
20260505212559 85 161 3.0 13.0 0.00 0.00 0.00 73 1003.5
20260505212100 85 135 3.0 8.0 0.00 0.00 0.00 75 1003.7
20260505211558 85 126 2.0 8.0 0.00 0.00 0.00 76 1003.9
20260505211100 85 123 2.0 9.0 0.00 0.00 0.00 72 1003.7
20260505210554 85 182 3.0 12.0 0.00 0.00 0.00 71 1003.7
20260505210050 85 122 3.0 12.0 0.00 0.00 0.00 72 1004.0
20260505205822 84 155 3.0 11.0 0.00 0.00 0.00 73 1004.2
20260505205050 84 157 3.0 11.0 0.00 0.00 0.00 73 1004.2
20260505204548 84 91 3.0 8.0 0.00 0.00 0.00 74 1004.2
20260505204323 83 204 2.0 7.0 0.00 0.00 0.00 75 1004.2
20260505203538 83 149 3.0 8.0 0.00 0.00 0.00 76 1004.3
20260505203038 83 143 2.0 8.0 0.00 0.00 0.00 79 1004.3
20260505202810 83 119 2.0 6.0 0.00 0.00 0.00 79 1004.5
20260505202308 83 162 2.0 6.0 0.00 0.00 0.00 78 1004.5
20260505201536 83 152 2.0 8.0 0.00 0.00 0.00 79 1004.5
20260505201036 82 80 3.0 10.0 0.00 0.00 0.00 79 1004.5
20260505200532 82 162 2.0 10.0 0.00 0.00 0.00 78 1004.5
20260505200034 82 154 3.0 11.0 0.00 0.00 0.00 78 1004.6
20260505195534 81 126 3.0 14.0 0.00 0.00 0.00 77 1004.7
20260505195031 81 177 2.0 14.0 0.00 0.00 0.00 78 1004.7
20260505194543 81 168 2.0 6.0 0.00 0.00 0.00 79 1004.7
20260505194538 81 163 3.0 7.0 0.00 0.00 0.00 79 1004.7
20260505193759 80 141 2.0 7.0 0.00 0.00 0.00 79 1004.8
20260505193022 80 116 2.0 7.0 0.00 0.00 0.00 79 1004.8
20260505192522 80 145 2.0 4.0 0.00 0.00 0.00 80 1004.8
20260505192022 79 122 2.0 8.0 0.00 0.00 0.00 80 1004.8